Detroit Lakes, MN

10:04 AM CDT on May 28, 2017 (GMT -0500)
Detroit Lakes

Weather History for KDTL - January, 2014

Change the Weather History Date:

Sunday, January 12, 2014

  Actual Average Record
Temperature  
Mean Temperature 34 °F -  
Max Temperature 41 °F 16 °F 43 °F (1987)
Min Temperature 26 °F -4 °F -39 °F (1977)
Degree Days  
Heating Degree Days 32    
Moisture  
Dew Point 29 °F    
Average Humidity 83    
Maximum Humidity 93    
Minimum Humidity 69    
Precipitation  
Precipitation 0.00 in - - ()
Sea Level Pressure  
Sea Level Pressure 29.35 in    
Wind  
Wind Speed 11 mph (WSW)    
Max Wind Speed 20 mph    
Max Gust Speed 25 mph    
Visibility 10 miles    
Events      
Averages and records for this station are not official NWS values.
T = Trace of Precipitation, MM = Missing Value Source: NWS Daily Summary

Daily Weather History Graph

Daily Weather History Graph

Search for Another Location

Airport or City:

Trip Planner

Search our weather history database for the weather conditions in past years. The results will help you decide how hot, cold, wet, or windy it might be!

Date:

Astronomy

Jan. 12, 2014 Rise Set
Actual Time 8:05 AM CST 4:58 PM CST
Civil Twilight 7:31 AM CST 5:32 PM CST
Nautical Twilight 6:53 AM CST 6:10 PM CST
Astronomical Twilight 6:17 AM CST 6:47 PM CST
Moon 2:28 PM CST (1/12) 5:03 AM CST (1/12)
Length of Visible Light 10h 01m
Length of Day
8h 52m
Waxing Gibbous, 90% of the Moon is Illuminated
Jan 12
Waxing Gibbous
Jan 15
Full
Jan 23
Last Quarter
Jan 30
New
Feb 6
First Quarter

Hourly Weather History & Observations

Time (CST) Temp. Windchill Dew Point Humidity Pressure Visibility Wind Dir Wind Speed Gust Speed Precip Events Conditions
12:15 AM 26.6 °F 16.2 °F 23.0 °F 86% 29.42 in 10.0 mi SSE 11.5 mph - N/A   Scattered Clouds
12:35 AM 26.6 °F 16.2 °F 23.0 °F 86% 29.39 in 10.0 mi SSE 11.5 mph - N/A   Clear
12:55 AM 28.4 °F 20.4 °F 23.0 °F 80% 29.38 in 10.0 mi SSE 8.1 mph - N/A   Scattered Clouds
1:15 AM 28.4 °F 19.7 °F 23.0 °F 80% 29.37 in 10.0 mi SSE 9.2 mph - N/A   Scattered Clouds
1:35 AM 28.4 °F 19.1 °F 23.0 °F 80% 29.36 in 10.0 mi SE 10.4 mph - N/A   Clear
1:54 AM 28.4 °F 19.7 °F 23.0 °F 80% 29.34 in 10.0 mi SSE 9.2 mph - N/A   Clear
2:15 AM 30.2 °F 20.2 °F 23.0 °F 75% 29.33 in 10.0 mi SSE 12.7 mph - N/A   Scattered Clouds
2:34 AM 32.0 °F 22.1 °F 23.0 °F 69% 29.32 in 10.0 mi SSE 13.8 mph 20.7 mph N/A   Scattered Clouds
2:55 AM 30.2 °F 20.2 °F 24.8 °F 80% 29.31 in 10.0 mi South 12.7 mph - N/A   Scattered Clouds
3:15 AM 32.0 °F 22.1 °F 24.8 °F 75% 29.29 in 10.0 mi SSE 13.8 mph - N/A   Scattered Clouds
3:35 AM 32.0 °F 22.5 °F 26.6 °F 80% 29.29 in 10.0 mi South 12.7 mph - N/A   Scattered Clouds
3:55 AM 32.0 °F 23.6 °F 26.6 °F 80% 29.32 in 10.0 mi South 10.4 mph - N/A   Scattered Clouds
4:15 AM 32.0 °F 22.1 °F 26.6 °F 80% 29.29 in 10.0 mi South 13.8 mph - N/A   Clear
4:35 AM 32.0 °F 23.6 °F 26.6 °F 80% 29.29 in 10.0 mi South 10.4 mph - N/A   Clear
4:55 AM 32.0 °F 22.5 °F 26.6 °F 80% 29.27 in 10.0 mi South 12.7 mph - N/A   Clear
5:15 AM 32.0 °F 22.5 °F 28.4 °F 87% 29.25 in 10.0 mi SSE 12.7 mph - N/A   Clear
5:35 AM 32.0 °F 25.6 °F 28.4 °F 87% 29.25 in 10.0 mi South 6.9 mph - N/A   Clear
5:55 AM 32.0 °F 25.6 °F 28.4 °F 87% 29.25 in 10.0 mi South 6.9 mph - N/A   Clear
6:15 AM 32.0 °F 28.7 °F 28.4 °F 87% 29.25 in 10.0 mi South 3.5 mph - N/A   Clear
6:35 AM 32.0 °F 26.4 °F 28.4 °F 87% 29.25 in 10.0 mi SSW 5.8 mph - N/A   Clear
6:55 AM 33.8 °F 28.6 °F 28.4 °F 81% 29.26 in 10.0 mi SW 5.8 mph - N/A   Scattered Clouds
7:15 AM 33.8 °F 27.7 °F 30.2 °F 87% 29.26 in 10.0 mi WSW 6.9 mph - N/A   Scattered Clouds
7:35 AM 33.8 °F 26.4 °F 30.2 °F 87% 29.26 in 10.0 mi SW 9.2 mph - N/A   Scattered Clouds
7:55 AM 32.0 °F 24.2 °F 30.2 °F 93% 29.26 in 10.0 mi SW 9.2 mph - N/A   Scattered Clouds
8:15 AM 32.0 °F 25.6 °F 30.2 °F 93% 29.26 in 10.0 mi SW 6.9 mph - N/A   Clear
8:35 AM 32.0 °F 28.7 °F 30.2 °F 93% 29.26 in 10.0 mi SW 3.5 mph - N/A   Clear
8:55 AM 32.0 °F 25.6 °F 30.2 °F 93% 29.27 in 10.0 mi South 6.9 mph - N/A   Clear
9:15 AM 32.0 °F 25.6 °F 30.2 °F 93% 29.28 in 10.0 mi SW 6.9 mph - N/A   Clear
9:35 AM 32.0 °F 23.0 °F 30.2 °F 93% 29.30 in 10.0 mi WSW 11.5 mph - N/A   Clear
9:55 AM 33.8 °F 25.8 °F 30.2 °F 87% 29.29 in 10.0 mi WSW 10.4 mph - N/A   Clear
10:15 AM 33.8 °F 25.3 °F 30.2 °F 87% 29.30 in 10.0 mi WSW 11.5 mph - N/A   Clear
10:35 AM 33.8 °F 26.4 °F 30.2 °F 87% 29.29 in 10.0 mi WSW 9.2 mph - N/A   Clear
10:55 AM 35.6 °F 29.2 °F 32.0 °F 87% 29.30 in 10.0 mi WSW 8.1 mph - N/A   Clear
11:15 AM 35.6 °F 29.2 °F 32.0 °F 87% 29.29 in 10.0 mi WSW 8.1 mph - N/A   Clear
11:35 AM 37.4 °F 30.3 °F 32.0 °F 81% 29.30 in 10.0 mi WSW 10.4 mph - N/A   Clear
11:55 AM 37.4 °F 29.8 °F 32.0 °F 81% 29.30 in 10.0 mi West 11.5 mph - N/A   Clear
12:15 PM 41.0 °F 34.3 °F 32.0 °F 70% 29.30 in 10.0 mi West 11.5 mph - N/A   Clear
12:35 PM 41.0 °F 33.5 °F 32.0 °F 70% 29.29 in 10.0 mi West 13.8 mph - N/A   Clear
12:55 PM 39.2 °F 31.2 °F 32.0 °F 75% 29.29 in 10.0 mi WNW 13.8 mph - N/A   Clear
1:15 PM 41.0 °F 33.5 °F 32.0 °F 70% 29.30 in 10.0 mi West 13.8 mph 19.6 mph N/A   Clear
1:35 PM 41.0 °F 33.5 °F 32.0 °F 70% 29.31 in 10.0 mi WNW 13.8 mph - N/A   Clear
1:55 PM 39.2 °F 30.8 °F 32.0 °F 75% 29.30 in 10.0 mi WNW 15.0 mph - N/A   Clear
2:15 PM 39.2 °F 30.5 °F 32.0 °F 75% 29.31 in 10.0 mi WNW 16.1 mph - N/A   Clear
2:35 PM 41.0 °F 34.7 °F 32.0 °F 70% 29.32 in 10.0 mi NW 10.4 mph - N/A   Clear
2:55 PM 39.2 °F 31.2 °F 32.0 °F 75% 29.31 in 10.0 mi West 13.8 mph - N/A   Clear
3:15 PM 41.0 °F 33.9 °F 32.0 °F 70% 29.34 in 10.0 mi West 12.7 mph - N/A   Clear
3:35 PM 39.2 °F 32.5 °F 32.0 °F 75% 29.33 in 10.0 mi WNW 10.4 mph - N/A   Clear
3:55 PM 37.4 °F 31.4 °F 30.2 °F 75% 29.36 in 10.0 mi West 8.1 mph - N/A   Clear
4:15 PM 37.4 °F 30.8 °F 30.2 °F 75% 29.36 in 10.0 mi West 9.2 mph - N/A   Clear
4:35 PM 37.4 °F 32.8 °F 30.2 °F 75% 29.36 in 10.0 mi West 5.8 mph - N/A   Clear
4:55 PM 35.6 °F 29.2 °F 30.2 °F 81% 29.37 in 10.0 mi West 8.1 mph - N/A   Clear
5:15 PM 35.6 °F 29.2 °F 30.2 °F 81% 29.39 in 10.0 mi West 8.1 mph - N/A   Clear
5:35 PM 35.6 °F 28.6 °F 30.2 °F 81% 29.39 in 10.0 mi West 9.2 mph - N/A   Clear
5:55 PM 35.6 °F 29.2 °F 30.2 °F 81% 29.40 in 10.0 mi West 8.1 mph - N/A   Clear
6:15 PM 35.6 °F 28.6 °F 30.2 °F 81% 29.40 in 10.0 mi West 9.2 mph - N/A   Clear
6:35 PM 33.8 °F 27.0 °F 30.2 °F 87% 29.41 in 10.0 mi WSW 8.1 mph - N/A   Clear
6:55 PM 33.8 °F 26.4 °F 30.2 °F 87% 29.41 in 10.0 mi West 9.2 mph - N/A   Clear
7:15 PM 33.8 °F 26.4 °F 30.2 °F 87% 29.41 in 10.0 mi West 9.2 mph - N/A   Clear
7:35 PM 33.8 °F 27.0 °F 30.2 °F 87% 29.42 in 10.0 mi West 8.1 mph - N/A   Clear
7:55 PM 33.8 °F 26.4 °F 30.2 °F 87% 29.42 in 10.0 mi West 9.2 mph - N/A   Clear
8:15 PM 32.0 °F 23.0 °F 30.2 °F 93% 29.43 in 10.0 mi West 11.5 mph - N/A   Clear
8:35 PM 33.8 °F 25.8 °F 30.2 °F 87% 29.43 in 10.0 mi West 10.4 mph - N/A   Clear
8:55 PM 32.0 °F 24.8 °F 28.4 °F 87% 29.43 in 10.0 mi West 8.1 mph - N/A   Clear
9:15 PM 32.0 °F 23.6 °F 28.4 °F 87% 29.45 in 10.0 mi West 10.4 mph - N/A   Clear
9:35 PM 32.0 °F 23.6 °F 28.4 °F 87% 29.46 in 10.0 mi West 10.4 mph - N/A   Clear
9:55 PM 32.0 °F 20.5 °F 28.4 °F 87% 29.47 in 10.0 mi WNW 18.4 mph - N/A   Scattered Clouds
10:15 PM 32.0 °F 20.1 °F 28.4 °F 87% 29.49 in 10.0 mi NW 19.6 mph 25.3 mph N/A   Mostly Cloudy
10:35 PM 32.0 °F 21.6 °F 28.4 °F 87% 29.50 in 10.0 mi NW 15.0 mph - N/A   Overcast
10:55 PM 30.2 °F 18.1 °F 28.4 °F 93% 29.51 in 10.0 mi NNW 18.4 mph 23.0 mph N/A   Overcast
11:15 PM 30.2 °F 18.5 °F 28.4 °F 93% 29.52 in 10.0 mi NNW 17.3 mph 23.0 mph N/A   Overcast
11:35 PM 30.2 °F 18.5 °F 28.4 °F 93% 29.53 in 10.0 mi NW 17.3 mph 21.9 mph N/A   Overcast
11:55 PM 30.2 °F 21.3 °F 26.6 °F 86% 29.54 in 10.0 mi NW 10.4 mph 18.4 mph N/A   Overcast